EW4415 Weather Reports


Display with metric or nautical units.
time (UTC)temp
F
wind
direction
speed
MPH
gust
MPH
rain 1hr
in
rain 24hr
in
rain mn
in
humidity
%
barometer
mb
20260902161524 61 273 0.0 0.0 0.00 0.00 0.00 1 1007.5
20260902160013 62 273 0.0 0.0 0.00 0.00 0.00 1 1007.5
20260902154514 62 261 0.0 0.0 0.00 0.00 0.00 10 1007.6
20260902153003 62 265 0.0 0.0 0.00 0.00 0.00 13 1007.6
20260902151601 63 116 0.0 0.0 0.00 0.00 0.00 30 1007.6
20260902150055 64 269 0.0 1.0 0.00 0.00 0.00 35 1007.7
20260902144556 64 89 0.0 1.0 0.00 0.00 0.00 41 1007.6
20260902143046 64 255 0.0 3.0 0.00 0.00 0.00 57 1007.6
20260902141541 64 277 0.0 6.0 0.00 0.00 0.00 59 1007.6
20260902140038 64 271 0.0 1.0 0.00 0.00 0.00 58 1007.6
20260902134533 65 311 0.0 7.0 0.00 0.00 0.00 59 1007.7
20260902133042 65 232 0.0 2.0 0.00 0.00 0.00 57 1007.6
20260902131524 64 255 0.0 1.0 0.00 0.00 0.00 58 1007.6
20260902130026 64 249 0.0 0.0 0.00 0.00 0.00 57 1007.6
20260902124514 63 247 0.0 2.0 0.00 0.00 0.00 53 1007.6
20260902123011 62 259 0.0 0.0 0.00 0.00 0.00 46 1007.6
20260902121507 62 238 0.0 1.0 0.00 0.00 0.00 50 1007.7
20260902120003 62 345 0.0 0.0 0.00 0.00 0.00 47 1007.7
20260902114558 62 258 0.0 2.0 0.00 0.00 0.00 50 1007.8
20260902113108 62 236 0.0 2.0 0.00 0.00 0.00 44 1007.8
20260902111549 62 283 0.0 0.0 0.00 0.00 0.00 39 1007.8
20260902110045 62 112 0.0 0.0 0.00 0.00 0.00 42 1007.9
20260902104559 62 292 0.0 1.0 0.00 0.00 0.00 36 1007.8
20260902103036 62 210 0.0 0.0 0.00 0.00 0.00 29 1007.9
20260902101537 60 256 0.0 3.0 0.00 0.00 0.00 22 1007.9
20260902100026 60 210 0.0 1.0 0.00 0.00 0.00 8 1007.8
20260902094522 59 230 0.0 4.0 0.00 0.00 0.00 1 1008.0
20260902093023 59 250 0.0 1.0 0.00 0.00 0.00 1 1007.9
20260902091513 58 250 0.0 0.0 0.00 0.00 0.00 1 1007.9
20260902090009 58 266 0.0 3.0 0.00 0.00 0.00 1 1007.9
20260902084504 57 240 0.0 7.0 0.00 0.00 0.00 1 1007.9
20260902083116 56 5 0.0 0.0 0.00 0.00 0.00 1 1008.0
20260902081556 56 303 0.0 0.0 0.00 0.00 0.00 1 1008.0
20260902080055 55 355 0.0 0.0 0.00 0.00 0.00 1 1007.9
20260902074547 55 38 0.0 0.0 0.00 0.00 0.00 1 1007.8
20260902073042 55 244 0.0 0.0 0.00 0.00 0.00 1 1007.8
20260902071538 55 239 0.0 0.0 0.00 0.00 0.00 1 1007.7
20260902070039 55 241 0.0 1.0 0.00 0.00 0.00 1 1007.6
20260902064533 55 333 0.0 1.0 0.00 0.00 0.00 1 1007.4
20260902063027 55 281 0.0 0.0 0.00 0.00 0.00 1 1007.3
20260902061535 55 265 0.0 0.0 0.00 0.00 0.00 1 1007.3
20260902060017 55 266 0.0 0.0 0.00 0.00 0.00 1 1007.2
20260902054511 55 286 0.0 0.0 0.00 0.00 0.00 1 1007.2
20260902053008 54 286 0.0 0.0 0.00 0.00 0.00 1 1007.1
20260902051503 54 286 0.0 0.0 0.00 0.00 0.00 1 1007.0
20260902050108 53 286 0.0 0.0 0.00 0.00 0.00 1 1007.0
20260902044555 53 286 0.0 0.0 0.00 0.00 0.00 1 1007.0
20260902043102 53 286 0.0 0.0 0.00 0.00 0.00 1 1007.0
20260902041546 53 286 0.0 0.0 0.00 0.00 0.00 1 1006.9
20260902040042 53 286 0.0 0.0 0.00 0.00 0.00 1 1006.8
20260902034537 53 286 0.0 0.0 0.00 0.00 0.00 1 1006.8
20260902033036 53 286 0.0 0.0 0.00 0.00 0.00 1 1006.8
20260902031537 53 286 0.0 0.0 0.00 0.00 0.00 1 1006.7
20260902030028 54 286 0.0 0.0 0.00 0.00 0.00 1 1006.7
20260902024520 54 286 0.0 0.0 0.00 0.00 0.00 1 1006.7
20260902023028 54 286 0.0 0.0 0.00 0.00 0.00 1 1006.7
20260902021511 55 286 0.0 0.0 0.00 0.00 0.00 1 1006.7
20260902020013 55 286 0.0 0.0 0.00 0.00 0.00 1 1006.7
20260902014502 55 286 0.0 0.0 0.00 0.00 0.00 1 1006.7
20260902013058 56 286 0.0 0.0 0.00 0.00 0.00 1 1006.7
20260902011622 56 286 0.0 0.0 0.00 0.00 0.00 1 1006.8
20260902010049 55 286 0.0 0.0 0.00 0.00 0.00 1 1006.8
20260902004544 55 286 0.0 0.0 0.00 0.00 0.00 1 1006.9
20260902003040 55 286 0.0 0.0 0.00 0.00 0.00 1 1006.8
20260902001536 55 286 0.0 0.0 0.00 0.00 0.00 1 1006.9
20260902000038 56 286 0.0 0.0 0.00 0.00 0.00 1 1006.9
20260901234526 56 286 0.0 0.0 0.00 0.00 0.00 1 1006.9
20260901233025 56 286 0.0 0.0 0.00 0.00 0.00 1 1007.0
20260901231519 56 286 0.0 0.0 0.00 0.00 0.00 1 1007.0
20260901230014 57 286 0.0 0.0 0.00 0.00 0.00 1 1007.1
20260901224515 57 286 0.0 0.0 0.00 0.00 0.00 1 1007.2
20260901223006 57 286 0.0 0.0 0.00 0.00 0.00 1 1007.2
20260901221503 57 286 0.0 0.0 0.00 0.00 0.00 1 1007.2
20260901220115 57 286 0.0 0.0 0.00 0.00 0.00 1 1007.3
20260901214552 57 286 0.0 0.0 0.00 0.00 0.00 1 1007.3
20260901213104 56 286 0.0 0.0 0.00 0.00 0.00 1 1007.3
20260901211544 56 286 0.0 0.0 0.00 0.00 0.00 1 1007.2
20260901210041 56 286 0.0 0.0 0.00 0.00 0.00 1 1007.2
20260901204535 56 286 0.0 0.0 0.00 0.00 0.00 1 1007.2
20260901203031 56 286 0.0 0.0 0.00 0.00 0.00 1 1007.3
20260901201529 56 286 0.0 0.0 0.00 0.00 0.00 1 1007.6
20260901200034 56 286 0.0 0.0 0.00 0.00 0.00 1 1007.7
20260901194520 57 286 0.0 0.0 0.00 0.00 0.00 1 1007.6
20260901193017 57 286 0.0 0.0 0.00 0.00 0.00 1 1007.5
20260901191520 57 286 0.0 0.0 0.00 0.00 0.00 1 1007.6
20260901190010 58 286 0.0 0.0 0.00 0.00 0.00 1 1007.5
20260901184507 58 286 0.0 0.0 0.00 0.00 0.00 1 1007.5
20260901183100 59 286 0.0 0.0 0.00 0.00 0.00 1 1007.6
20260901181614 59 286 0.0 0.0 0.00 0.00 0.00 1 1007.6
20260901180051 60 286 0.0 0.0 0.00 0.00 0.00 1 1007.6
20260901174547 60 286 0.0 0.0 0.00 0.00 0.00 1 1007.7
20260901173042 60 286 0.0 0.0 0.00 0.00 0.00 1 1007.8
20260901171540 61 286 0.0 0.0 0.00 0.00 0.00 1 1007.8
20260901170037 61 286 0.0 0.0 0.00 0.00 0.00 1 1007.7
20260901164529 62 286 0.0 0.0 0.00 0.00 0.00 1 1007.6
20260901163024 63 286 0.0 0.0 0.00 0.00 0.00 1 1007.6